Starlink 33816

operational
NORAD ID: 63677 Int'l Des: 2025-085 Owner: SPXS Country: US Constellation: starlink
LEOCIRCULAR

关于 Starlink 33816

正在加载描述...

实时位置

正在加载3D地球...

即将过境

高度历史

Altitude vs Time

uPlot chart will show altitude changes over time

两行轨道根数

1 63677U 25085P 25305.63302405 .00021722 00000-0 79655-3 0 9996
2 63677 42.9978 34.2611 0000858 79.3680 280.7268 15.27580709 29380
Epoch: Nov 1, 2025 • Age: 11 hours

当前状态

高度 484.4 km
速度 7.63 km/s
星下点 37.21°N, 75.49°E
发射日期 Apr 28, 2025
运行时间 0.5 years
类型 internet

技术详情

分类 Payload
质量 575.00 kg
干质量 530.00 kg
总质量 575.00 kg
长度 0.30 m
直径 4.10 m
跨度 29.00 m
形状 Box + pan
制造商 SPXS
平台类型 Starlink V2MO
阶段状态 In Orbit
所有者/国家 SPXS/US

大型星座

Loading constellations...